This demonstration page uses our WeatherBlox Daily Observations layout. Learn more.

Left ArrowRight Arrow

Hourly Observations for April 16, 2021

Temp ( °F °C ) Dew Point ( °F °C ) Humidity (%) Winds ( mph kmh ) Pressure ( in mb ) Visibility ( mi km ) Precip ( " mm )
12:54 am 00:54 Clear 41 5 31 -0.6 67 67 N 5 7 30.16 1021 10 16.0934 0 0
1:54 am 01:54 Mostly Clear 40 4.4 31 -0.6 70 70 N 6 9 30.14 1021 10 16.0934 0 0
2:54 am 02:54 Clear 38 3.3 31 -0.6 76 76 N 6 9 30.12 1020 10 16.0934 0 0
3:54 am 03:54 Clear 38 3.3 31 -0.6 76 76 N 7 11 30.11 1020 10 16.0934 0 0
4:54 am 04:54 Clear 38 3.3 31 -0.6 76 76 N 6 9 30.11 1020 10 16.0934 0 0
5:54 am 05:54 Mostly Cloudy 37 2.8 31 -0.6 79 79 N 3 6 30.11 1020 10 16.0934 0 0
6:54 am 06:54 Cloudy 38 3.3 31 -0.6 76 76 N 5 7 30.11 1020 10 16.0934 0 0
7:54 am 07:54 Mostly Cloudy 39 3.9 32 0 76 76 NNW 5 7 30.12 1020 10 16.0934 0 0
8:54 am 08:54 Cloudy 41 5 33 0.6 73 73 N 5 7 30.11 1020 10 16.0934 0 0
9:54 am 09:54 Cloudy 43 6.1 33 0.6 68 68 Calm 30.1 1019 10 16.0934 0 0
10:54 am 10:54 Cloudy 43 6.1 34 1.1 71 71 N 5 7 30.11 1020 10 16.0934 0 0
11:54 am 11:54 Cloudy 44 6.7 35 1.7 71 71 VRB 3 6 30.11 1020 10 16.0934 0.001 0.001
12:54 pm 12:54 Cloudy with Light Rain 44 6.7 35 1.7 71 71 Calm 30.1 1019 10 16.0934 0.001 0.001
1:29 pm 13:29 Cloudy with Light Rain 44 6.7 35 1.7 71 71 NW 5 7 30.12 1020 10 16.0934 0.001 0.001
1:54 pm 13:54 Cloudy with Light Rain 44 6.7 35 1.7 71 71 WNW 6 9 30.11 1020 7 11.26538 0.001 0.001
2:54 pm 14:54 Cloudy with Light Rain 43 6.1 36 2.2 76 76 NNW 8 13 30.11 1020 5 8.0467 0.06 1.524
3:08 pm 15:08 Cloudy with Light Rain 43 6.1 36 2.2 76 76 NNW 8 13 30.12 1020 4 6.43736 0.001 0.001
3:47 pm 15:47 Cloudy with Light Rain 42 5.6 37 2.8 82 82 N 7 11 30.12 1020 4 6.43736 0.03 0.762
3:54 pm 15:54 Cloudy with Light Rain 42 5.6 37 2.8 82 82 N 10 17 30.1 1019 4 6.43736 0.04 1.016
4:01 pm 16:01 Cloudy with Light Rain 42 5.6 37 2.8 82 82 N 9 15 30.11 1020 4 6.43736 0.001 0.001
4:10 pm 16:10 Cloudy with Light Rain 43 6.1 38 3.3 82 82 N 8 13 30.11 1020 6 9.65604 0.001 0.001
4:18 pm 16:18 Cloudy with Light Rain 43 6.1 37 2.8 80 80 N 9 15 30.11 1020 8 12.87472 0.001 0.001
4:23 pm 16:23 Cloudy with Light Rain 43 6.1 37 2.8 80 80 N 8 13 30.11 1020 9 14.48406 0.001 0.001
4:54 pm 16:54 Cloudy with Light Rain 43 6.1 37 2.8 80 80 N 8 13 30.1 1019 8 12.87472 0.01 0.254
5:03 pm 17:03 Cloudy with Light Rain 43 6.1 37 2.8 80 80 N 7 11 30.11 1020 7 11.26538 0.001 0.001
5:18 pm 17:18 Cloudy with Light Rain 43 6.1 37 2.8 80 80 N 8 13 30.11 1020 7 11.26538 0.001 0.001
5:32 pm 17:32 Cloudy with Light Rain 43 6.1 38 3.3 82 82 N 8 13 30.11 1020 7 11.26538 0.001 0.001
5:54 pm 17:54 Cloudy with Light Rain 43 6.1 37 2.8 80 80 N 9 15 30.1 1019 10 16.0934 0.001 0.001
6:54 pm 18:54 Cloudy 43 6.1 37 2.8 80 80 N 6 9 30.09 1019 10 16.0934 0.001 0.001
7:54 pm 19:54 Cloudy 43 6.1 37 2.8 80 80 NNW 6 9 30.1 1019 9 14.48406 0 0
8:54 pm 20:54 Cloudy with Light Rain 43 6.1 38 3.3 82 82 NW 6 9 30.11 1020 10 16.0934 0.001 0.001
9:54 pm 21:54 Cloudy with Light Rain 42 5.6 38 3.3 85 85 NNW 8 13 30.12 1020 10 16.0934 0.02 0.508
10:54 pm 22:54 Cloudy with Light Rain 42 5.6 38 3.3 85 85 NNW 8 13 30.13 1020 8 12.87472 0.02 0.508
11:36 pm 23:36 Cloudy with Light Rain 42 5.6 38 3.3 85 85 NW 6 9 30.14 1021 7 11.26538 0.001 0.001
11:54 pm 23:54 Cloudy with Light Rain 42 5.6 38 3.3 85 85 NW 6 9 30.12 1020 8 12.87472 0.01 0.254

Powered by AerisWeather